FENGYUN 1C DEB

Satellite information

Favourite Embed

Satellite Type and Status

DEBRISIN ORBIT

Key statistics

Satellite FENGYUN 1C DEB at a glance.

Uptime

9500

Days in orbit

Revolutions

≈ 14.3

Per day

Orbit

SSO

Sun Synchronous Orbit

Inclination

98.4

Latest

Satellite identification and parameters

Extended collection of information and parameters for FENGYUN 1C DEB.

Object identification

Identified? True

Debris? True

Object name: FENGYUN 1C DEB

International designator: 1999-025AJC

Object number (NORAD): 30514

Object ID (CCSDS): 30514

Country: PEOPLES REPUBLIC OF CHINA (PRC)

Current information (Y/N): Y

RCS size: SMALL

Orbital parameters

Period: 100.454 minutes

Inclination: 98.4295 deg

SMA: 7158.223 km

Apoapsis: 905.755 km

Periapsis: 654.421 km

RAAN: 161.2729 deg

Eccentricy: 0.0175556

Argument of periapsis: 12.1082 deg

Mean anomaly: 348.4241 deg

Mean motion: 14.33490813 rev/day

Mean motion (dot): 0.00002252 rev/day2

B* drag term: 0.0007003 1/REarth

Two-line elements (TLE)

Creation date: May 12, 2025, 7:41 p.m.

Reference frame: TEME

Reference center: EARTH

Epoch: May 12, 2025, 7:19 a.m. UTC

TLE line 0: 0 FENGYUN 1C DEB

TLE line 1: 1 30514U 99025AJC 25132.30511058 .00002252 00000-0 70030-3 0 9998

TLE line 2: 2 30514 98.4295 161.2729 0175556 12.1082 348.4241 14.33490813951527

Live tracking on map

Real-time ground track for satellite FENGYUN 1C DEB.

In-orbit conjunctions

A list of the most updated potential collisions computed for object FENGYUN 1C DEB.

Target Orbit TCA Probability of collision Miss distance Type
IRIDIUM 33 DEB LEO 2024-11-09 16:09:31 0.000106492 301.0 (m) DEBRIS

Associated space launch

Chinese polar orbiting meteorological satellite

FENGYUN 1C DEB was lifted into orbit during the mission ‘Long March 4B | Feng Yun 1C’, on board a Long March 4B space rocket.

The launch took place on May 10, 1999, 1:33 a.m. from Launch Complex 7.

For more information about the launch, click the button.

Launch to space Long March 4B | Feng Yun 1C
Long March 4B | Feng Yun 1C

Agency: N/A

Status: Launch Successful

Launch date: May 10, 1999, 1:33 a.m. UTC

Rocket: Long March 4B

Launch pad: Launch Complex 7

Location: Taiyuan Satellite Launch Center, People's Republic of China

...

Latest news about this satellite

There are no fresh news available about this satellite. Check back as we update our databases every day.


Newsletter sign-up

Weekly statistics, charts and insights to help you stay on top of the space industry.